Hurghada, Egypt

11:51 PM EET on February 20, 2018 (GMT +0200)
Hurghada

Weather History for HEGN - January, 2013

Change the Weather History Date:

Wednesday, January 23, 2013

  Actual Average Record
Temperature  
Mean Temperature 68 °F -  
Max Temperature 78 °F 70 °F 89 °F (2015)
Min Temperature 58 °F 53 °F 48 °F (2005)
Cooling Degree Days 3    
Growing Degree Days 18 (Base 50)    
Moisture  
Dew Point 53 °F    
Average Humidity 64    
Maximum Humidity 94    
Minimum Humidity 34    
Precipitation  
Precipitation 0.00 in - - ()
Sea Level Pressure  
Sea Level Pressure 30.04 in    
Wind  
Wind Speed 11 mph ()    
Max Wind Speed 23 mph    
Max Gust Speed -    
Visibility 5.4 miles    
Events      
Averages and records for this station are not official NWS values.
T = Trace of Precipitation, MM = Missing Value Source: Averaged Metar Reports

Daily Weather History Graph

Daily Weather History Graph

Search for Another Location

Airport or City:

Trip Planner

Search our weather history database for the weather conditions in past years. The results will help you decide how hot, cold, wet, or windy it might be!

Date:

Astronomy

Jan. 23, 2013 Rise Set
Actual Time 6:34 AM EET 5:19 PM EET
Civil Twilight 6:09 AM EET 5:44 PM EET
Nautical Twilight 5:41 AM EET 6:12 PM EET
Astronomical Twilight 5:13 AM EET 6:40 PM EET
Moon 2:17 PM EET (1/23) 3:25 AM EET (1/23)
Length of Visible Light 11h 34m
Length of Day
10h 45m
Waxing Gibbous, 87% of the Moon is Illuminated
Jan 23
Waxing Gibbous
Jan 27
Full
Feb 3
Last Quarter
Feb 10
New
Feb 17
First Quarter

Hourly Weather History & Observations

Time (EET) Temp. Dew Point Humidity Pressure Visibility Wind Dir Wind Speed Gust Speed Precip Events Conditions
12:00 AM 62.6 °F 59.0 °F 88% 30.01 in - WNW 4.6 mph - N/A   Clear
1:00 AM 62.6 °F 60.8 °F 94% 30.01 in - NNW 4.6 mph - N/A   Clear
2:00 AM 63 °F 61 °F 91% 30.04 in 6 mi NW 10.4 mph - -  
2:00 AM 62.6 °F 60.8 °F 94% 30.04 in - NW 10.4 mph - N/A   Clear
3:00 AM 64.4 °F 59.0 °F 83% 30.04 in - NW 13.8 mph - N/A   Clear
4:00 AM 60.8 °F 53.6 °F 77% 30.01 in - WNW 13.8 mph - N/A   Clear
5:00 AM 59.0 °F 50.0 °F 72% 30.01 in - WNW 15.0 mph - N/A   Clear
6:00 AM 59.0 °F 53.6 °F 82% 30.04 in - WNW 16.1 mph - N/A   Clear
7:00 AM 59.0 °F 53.6 °F 82% 30.06 in - WNW 11.5 mph - N/A   Clear
8:00 AM 60 °F 55 °F 78% 30.09 in 6 mi WNW 10.4 mph - -  
8:00 AM 60.8 °F 55.4 °F 82% 30.06 in - WNW 10.4 mph - N/A   Clear
9:00 AM 64.4 °F 55.4 °F 73% 30.04 in - WNW 13.8 mph - N/A   Clear
10:00 AM 68.0 °F 55.4 °F 64% 30.09 in - North 17.3 mph - N/A   Clear
11:00 AM 71.6 °F 55.4 °F 57% 30.09 in - North 19.6 mph - N/A   Clear
12:00 PM 75.2 °F 53.6 °F 47% 30.04 in - North 20.7 mph - N/A   Clear
1:00 PM 77.0 °F 55.4 °F 47% 30.01 in 5.0 mi North 18.4 mph - N/A   Unknown
2:00 PM 78 °F 54 °F 34% 30.02 in 5 mi NW 23.0 mph - -   Blowing Sand
2:00 PM 77.0 °F 55.4 °F 47% 30.01 in 5.0 mi North 23.0 mph - N/A   Unknown
3:00 PM 77.0 °F 55.4 °F 47% 30.01 in 5.0 mi North 19.6 mph - N/A   Unknown
4:00 PM 75.2 °F 53.6 °F 47% 30.04 in 5.0 mi North 18.4 mph - N/A   Unknown
5:00 PM 73.4 °F 51.8 °F 47% 30.04 in - North 17.3 mph - N/A   Clear
6:00 PM 69.8 °F 53.6 °F 56% 30.04 in - North 13.8 mph - N/A   Clear
7:00 PM 68.0 °F 50.0 °F 52% 30.06 in - North 16.1 mph - N/A   Clear
8:00 PM 66 °F 46 °F 37% 30.09 in 6 mi North 13.8 mph - -  
8:00 PM 66.2 °F 46.4 °F 49% 30.06 in - North 13.8 mph - N/A   Clear
9:00 PM 66.2 °F 39.2 °F 37% 30.06 in - NNW 16.1 mph - N/A   Clear
10:00 PM 60.8 °F 46.4 °F 59% 30.09 in - WNW 11.5 mph - N/A   Clear
11:00 PM 59.0 °F 46.4 °F 63% 30.06 in - WNW 11.5 mph - N/A   Clear